CAPE
0 0 0 0 0 0 0 0 0 0 0 0 0 0 0 0 0 0 0 645 866 731 1008 975 949 1023 1064 1099 1066 979 999 1003 832 528 1006 816 576 520 207 12 0 0 4 0 0 0 0 0 0
0 0 0 0 0 0 0 0 0 0 0 0 0 0 0 0 0 0 0 980 934 917 1119 1034 789 763 766 863 834 672 542 442 393 916 954 763 635 392 73 0 0 0 0 0 0 0 0 0 0
0 0 0 0 0 0 0 0 0 0 0 0 0 0 0 0 0 0 0 1017 972 1034 1209 987 893 778 746 751 763 620 530 461 477 810 768 632 590 202 49 0 0 0 0 0 0 0 0 0 0
0 0 0 0 0 0 0 0 0 0 0 0 0 0 0 0 0 0 0 1041 952 1005 1124 879 813 777 751 837 824 654 558 528 515 592 718 520 482 149 34 0 0 0 0 0 0 0 0 0 0
0 0 0 0 0 0 0 0 0 0 0 0 0 0 0 0 0 0 365 926 963 1058 1056 974 894 801 758 713 711 731 633 597 682 719 541 491 449 165 0 0 0 0 0 0 0 0 0 0 0
0 0 0 0 0 0 0 0 0 0 0 0 0 0 0 0 0 16 198 647 1008 956 1014 1052 984 942 845 626 606 649 546 436 390 503 285 410 338 175 0 0 0 0 0 0 0 0 0 0 0
0 0 0 0 0 0 0 0 0 0 0 0 0 0 0 0 0 0 3 36 212 404 798 974 897 817 734 592 588 645 516 425 350 289 272 211 110 58 0 0 0 0 0 0 0 0 0 0 0
0 0 0 0 0 0 0 0 0 0 0 0 0 0 0 0 0 0 0 0 0 0 0 74 567 880 838 753 665 774 705 485 389 290 231 95 47 3 0 0 0 0 0 0 0 0 0 0 0
0 0 0 0 0 0 0 0 0 0 0 0 0 0 0 0 0 0 0 0 0 0 0 0 0 0 212 564 556 587 642 590 447 372 265 95 3 0 0 0 3 0 0 0 0 0 0 0 0
0 0 0 0 0 0 0 0 0 0 0 0 0 0 0 0 0 0 0 0 0 0 0 0 0 0 0 20 278 427 475 558 455 375 227 131 0 0 2 0 0 0 0 0 0 0 0 0 0
0 0 0 0 0 0 0 0 0 0 0 0 0 0 0 0 0 0 0 0 0 0 0 0 0 0 0 0 5 128 232 295 401 398 283 254 17 0 0 0 0 0 0 0 0 0 0 0 0
0 0 0 0 0 0 0 0 0 0 0 0 0 0 0 0 0 0 0 0 0 0 0 0 0 0 0 0 0 1 17 11 60 189 253 207 74 0 0 0 0 1 0 0 0 0 0 0 0
0 0 0 0 0 0 0 0 0 0 0 0 0 0 0 0 0 0 0 0 0 0 0 0 0 0 0 0 0 0 0 0 0 0 11 41 21 2 2 0 0 0 0 0 0 0 0 0 0
0 0 0 0 0 0 0 0 0 0 0 0 0 0 0 0 0 0 0 0 0 0 0 0 0 0 0 0 0 0 0 0 0 0 0 0 0 0 0 0 0 0 0 0 0 0 0 0 0
0 0 0 0 0 0 0 0 0 0 0 0 0 0 0 0 0 0 0 0 0 0 0 0 0 0 0 0 0 0 0 0 0 0 0 0 0 0 0 0 0 0 0 0 0 0 0 0 0
0 0 0 0 0 0 0 0 0 0 0 0 0 0 0 0 0 0 0 0 0 0 0 0 0 0 0 0 0 0 0 0 0 0 0 0 0 0 0 0 0 0 0 0 0 0 0 0 0
0 0 0 0 0 0 0 0 0 0 0 0 0 0 0 0 0 0 0 0 0 0 0 0 0 0 0 0 0 0 0 0 0 0 0 0 0 0 0 0 0 0 0 0 0 0 0 0 0
0 0 0 0 0 0 0 0 0 0 0 0 0 0 0 0 0 0 0 0 0 0 0 0 0 0 0 0 0 0 0 0 0 0 0 0 0 0 0 0 0 0 0 0 0 0 0 0 0
0 0 0 0 0 0 0 0 0 0 0 0 0 0 0 0 0 0 0 0 0 0 0 0 0 0 0 0 0 0 0 0 0 0 0 0 0 0 0 0 0 0 0 0 0 0 0 0 0
0 0 0 0 0 0 0 0 0 0 0 0 0 0 0 0 0 0 0 0 0 0 0 0 0 0 0 0 0 0 0 0 0 0 0 0 0 0 0 0 0 0 0 0 0 0 0 0 0
0 0 0 0 0 0 0 0 0 0 0 0 0 0 0 0 0 0 0 0 0 0 0 0 0 0 0 0 0 0 0 0 0 0 0 0 0 0 0 0 0 0 0 0 0 0 0 0 0
0 0 0 0 0 0 0 0 0 0 0 0 0 0 0 0 0 0 0 0 0 0 0 0 0 0 0 0 0 0 0 0 0 0 0 0 0 0 0 0 0 0 0 0 0 0 0 0 0
0 0 0 0 0 0 0 0 0 0 0 0 0 0 0 0 0 0 0 0 0 0 0 0 0 0 0 0 0 0 0 0 0 0 0 0 0 0 0 0 0 0 0 0 0 0 0 0 0
0 0 0 0 0 0 0 0 0 0 0 0 0 0 0 0 0 0 0 0 0 0 0 0 0 0 0 0 0 0 0 0 0 0 0 0 0 0 0 0 0 0 0 0 0 0 0 0 0
0 0 0 0 0 0 0 0 0 0 0 0 0 0 0 0 0 0 0 0 0 0 0 0 0 0 0 0 0 0 0 0 0 0 0 0 0 0 0 0 0 0 0 0 0 0 0 0 0
0 0 0 0 0 0 0 0 0 0 0 0 0 0 0 0 0 0 0 0 0 0 0 0 0 0 0 0 0 0 0 0 0 0 0 0 0 0 0 0 0 0 0 0 0 0 0 0 0
0 0 0 0 0 0 0 0 0 0 0 0 0 0 0 0 0 0 0 0 0 0 0 0 0 0 0 0 0 0 0 0 0 0 0 0 0 0 0 0 0 0 0 0 0 0 0 0 0
0 0 0 0 0 0 0 0 0 0 0 0 0 0 0 0 0 0 0 0 0 0 0 0 0 0 0 0 0 0 0 0 0 0 0 0 0 0 0 0 0 0 0 0 0 0 0 0 0
0 0 0 0 0 0 0 0 0 0 0 0 0 0 0 0 0 0 0 0 0 0 0 0 0 0 0 0 0 0 0 0 0 0 0 0 0 0 0 0 0 0 0 0 0 0 0 0 0
0 0 0 0 0 0 0 0 0 0 0 0 0 0 0 0 0 0 0 0 0 0 0 0 0 0 0 0 0 0 0 0 0 0 0 0 0 0 0 0 0 0 0 0 0 0 0 0 0
CIN
0 0 0 0 0 0 0 0 0 0 0 0 0 0 0 0 0 0 0 -50 -57 -56 -30 -28 -23 -20 -14 -8 -8 -8 -6 -4 -4 -33 0 0 -1 -6 -49 -148 0 0 0 0 0 0 0 0 0
0 0 0 0 0 0 0 0 0 0 0 0 0 0 0 0 0 0 0 -31 -40 -51 -26 -32 -45 -51 -43 -27 -27 -40 -59 -64 -57 -2 0 0 0 0 -54 0 0 0 0 0 0 0 0 0 0
0 0 0 0 0 0 0 0 0 0 0 0 0 0 0 0 0 0 0 -25 -34 -32 -21 -35 -38 -43 -43 -42 -37 -51 -49 -48 -33 -1 0 0 0 -7 -85 0 0 0 0 0 0 0 0 0 0
0 0 0 0 0 0 0 0 0 0 0 0 0 0 0 0 0 0 0 -28 -30 -27 -21 -36 -36 -35 -36 -24 -20 -29 -33 -34 -30 -7 0 0 0 -13 -65 0 0 0 0 0 0 0 0 0 0
0 0 0 0 0 0 0 0 0 0 0 0 0 0 0 0 0 -42 -186 -44 -18 -20 -19 -18 -21 -27 -30 -31 -29 -21 -21 -16 -5 0 0 0 0 -2 -1 0 0 0 0 0 0 0 0 0 0
0 0 0 0 0 0 0 0 0 0 0 0 0 0 0 0 0 -433 -272 -80 -30 -21 -21 -16 -12 -13 -18 -32 -21 -13 -12 -13 -15 -6 -9 -2 -3 -19 -1 0 0 0 0 0 0 0 0 0 0
0 0 0 0 0 0 0 0 0 0 0 0 0 0 0 0 0 0 -95 -373 -252 -149 -41 -17 -17 -12 -13 -15 -11 -7 -11 -16 -33 -41 -30 -36 -68 -82 0 0 0 0 0 0 0 0 0 0 0
0 0 0 0 0 0 0 0 0 0 0 0 0 0 0 0 0 0 0 0 0 0 0 -279 -63 -12 -8 -10 -15 -9 -8 -20 -32 -51 -60 -107 -134 -46 0 0 0 0 0 0 0 0 0 0 0
0 0 0 0 0 0 0 0 0 0 0 0 0 0 0 0 0 0 0 0 0 0 0 0 0 0 -125 -34 -29 -18 -9 -11 -34 -54 -65 -121 -153 0 0 -8 -17 0 0 0 0 0 0 0 0
0 0 0 0 0 0 0 0 0 0 0 0 0 0 0 0 0 0 0 0 0 0 0 0 0 0 0 -110 -119 -59 -45 -15 -27 -37 -67 -103 0 -14 -35 -4 0 0 0 0 0 0 0 0 0
0 0 0 0 0 0 0 0 0 0 0 0 0 0 0 0 0 0 0 0 0 0 0 0 0 0 0 0 -129 -174 -114 -89 -35 -27 -51 -60 -205 -13 -1 0 0 0 0 0 0 0 0 0 0
0 0 0 0 0 0 0 0 0 0 0 0 0 0 0 0 0 0 0 0 0 0 0 0 0 0 0 0 0 -22 -248 -253 -214 -118 -77 -87 -174 -8 0 0 0 -19 0 0 0 0 0 0 0
0 0 0 0 0 0 0 0 0 0 0 0 0 0 0 0 0 0 0 0 0 0 0 0 0 0 0 0 0 -18 -23 0 0 0 -189 -248 -254 -28 0 0 0 0 0 0 0 0 0 0 0
0 0 0 0 0 0 0 0 0 0 0 0 0 0 0 0 0 0 0 0 0 0 0 0 0 0 0 0 0 0 0 0 0 0 -19 0 -7 0 0 0 0 0 0 0 0 0 0 0 0
0 0 0 0 0 0 0 0 0 0 0 0 0 0 0 0 0 0 0 0 0 0 0 0 0 0 0 0 0 0 0 0 0 0 0 0 0 0 0 0 0 0 0 0 0 0 0 0 0
0 0 0 0 0 0 0 0 0 0 0 0 0 0 0 0 0 0 0 0 0 0 0 0 0 0 0 0 0 0 0 0 0 0 0 0 0 0 0 0 0 0 0 0 0 0 0 0 0
0 0 0 0 0 0 0 0 0 0 0 0 0 0 0 0 0 0 0 0 0 0 0 0 0 0 0 0 0 0 0 0 0 0 0 0 0 0 0 0 0 0 0 0 0 0 0 0 0
0 0 0 0 0 0 0 0 0 0 0 0 0 0 0 0 0 0 0 0 0 0 0 0 0 0 0 0 0 0 0 0 0 0 0 0 0 0 0 0 0 0 0 0 0 0 0 0 0
0 0 0 0 0 0 0 0 0 0 0 0 0 0 0 0 0 0 0 0 0 0 0 0 0 0 0 0 0 0 0 0 0 0 0 0 0 0 0 0 0 0 0 0 0 0 0 0 0
0 0 0 0 0 0 0 0 0 0 0 0 0 0 0 0 0 0 0 0 0 0 0 0 0 0 0 0 0 0 0 0 0 0 0 0 0 0 0 0 0 0 0 0 0 0 0 0 0
0 0 0 0 0 0 0 0 0 0 0 0 0 0 0 0 0 0 0 0 0 0 0 0 0 0 0 0 0 0 0 0 0 0 0 0 0 0 0 0 0 0 0 0 0 0 0 0 0
0 0 0 0 0 0 0 0 0 0 0 0 0 0 0 0 0 0 0 0 0 0 0 0 0 0 0 0 0 0 0 0 0 0 0 0 0 0 0 0 0 0 0 0 0 0 0 0 0
0 0 0 0 0 0 0 0 0 0 0 0 0 0 0 0 0 0 0 0 0 0 0 0 0 0 0 0 0 0 0 0 0 0 0 0 0 0 0 0 0 0 0 0 0 0 0 0 0
0 0 0 0 0 0 0 0 0 0 0 0 0 0 0 0 0 0 0 0 0 0 0 0 0 0 0 0 0 0 0 0 0 0 0 0 0 0 0 0 0 0 0 0 0 0 0 0 0
0 0 0 0 0 0 0 0 0 0 0 0 0 0 0 0 0 0 0 0 0 0 0 0 0 0 0 0 0 0 0 0 0 0 0 0 0 0 0 0 0 0 0 0 0 0 0 0 0
0 0 0 0 0 0 0 0 0 0 0 0 0 0 0 0 0 0 0 0 0 0 0 0 0 0 0 0 0 0 0 0 0 0 0 0 0 0 0 0 0 0 0 0 0 0 0 0 0
0 0 0 0 0 0 0 0 0 0 0 0 0 0 0 0 0 0 0 0 0 0 0 0 0 0 0 0 0 0 0 0 0 0 0 0 0 0 0 0 0 0 0 0 0 0 0 0 0
0 0 0 0 0 0 0 0 0 0 0 0 0 0 0 0 0 0 0 0 0 0 0 0 0 0 0 0 0 0 0 0 0 0 0 0 0 0 0 0 0 0 0 0 0 0 0 0 0
0 0 0 0 0 0 0 0 0 0 0 0 0 0 0 0 0 0 0 0 0 0 0 0 0 0 0 0 0 0 0 0 0 0 0 0 0 0 0 0 0 0 0 0 0 0 0 0 0
0 0 0 0 0 0 0 0 0 0 0 0 0 0 0 0 0 0 0 0 0 0 0 0 0 0 0 0 0 0 0 0 0 0 0 0 0 0 0 0 0 0 0 0 0 0 0 0 0
Wind_Speed
14 14 17 18 21 22 22 21 22 23 21 20 7 20 21 18 19 18 20 21 22 24 26 25 24 25 24 9 11 13 11 11 13 14 14 16 17 18 18 19 20 20 20 19 20 20 20 21 21
14 17 17 20 22 23 21 22 22 22 25 25 16 20 8 21 18 22 21 23 22 24 25 24 21 21 19 18 15 12 9 7 8 8 12 14 16 16 18 19 19 20 20 20 21 21 21 21 21
17 17 19 19 19 20 20 21 23 24 23 19 20 10 18 19 17 21 21 22 21 21 22 23 22 21 20 17 14 12 13 13 13 13 14 14 17 17 17 18 19 20 20 20 20 21 21 21 21
16 17 18 19 20 18 19 21 22 22 20 20 20 13 15 16 18 20 19 23 22 21 20 20 20 19 19 17 17 16 14 12 13 13 13 14 17 17 18 19 20 21 21 22 22 23 23 23 23
11 15 17 18 18 18 20 21 21 20 19 19 19 19 18 12 10 9 16 22 22 22 22 21 19 18 17 17 17 16 15 14 14 15 16 17 18 17 18 20 22 23 23 24 24 24 24 24 24
11 13 15 15 16 17 18 18 18 18 18 19 16 17 18 8 11 11 11 14 19 20 19 19 19 19 19 18 17 16 16 15 15 15 15 16 16 16 17 18 20 22 23 24 24 24 24 24 24
11 13 14 15 12 14 14 15 14 16 15 15 17 15 15 14 14 13 12 11 10 9 11 11 12 12 12 13 14 14 14 13 13 14 14 15 15 16 17 18 19 21 22 23 24 24 24 24 24
11 12 13 13 11 11 12 12 12 11 11 12 12 13 13 14 15 12 10 10 10 10 9 9 9 9 9 9 9 9 11 10 11 11 12 12 12 13 14 16 18 20 21 22 23 23 23 24 24
12 12 13 14 9 11 10 10 11 10 9 11 13 10 11 14 12 10 9 8 9 9 9 8 8 7 7 8 8 7 7 8 8 9 10 10 12 13 15 15 16 17 19 20 21 21 22 23 23
12 12 12 14 12 9 8 8 9 8 7 11 11 11 10 10 10 8 8 7 7 7 8 9 9 9 8 6 6 7 6 6 7 8 9 10 11 11 11 12 14 16 18 19 20 21 21 22 22
13 13 13 14 15 10 8 9 8 7 5 4 5 7 7 7 7 6 5 5 6 6 8 10 10 10 7 7 5 6 7 7 7 5 8 9 8 8 9 11 13 15 17 19 20 21 22 22 23
15 14 14 14 16 12 8 10 9 6 9 9 4 7 6 6 6 5 4 4 5 6 8 10 11 10 8 8 7 10 8 9 10 8 5 6 6 7 8 10 13 14 16 18 19 20 21 22 23
16 16 16 14 15 13 12 9 9 8 9 10 5 4 4 4 3 3 3 5 5 6 9 12 12 9 8 8 8 8 7 9 10 9 9 7 6 7 8 11 13 14 14 16 18 19 20 21 21
16 17 17 16 14 13 11 10 11 10 5 5 2 1 1 2 1 3 3 4 6 9 11 13 12 9 7 7 6 6 7 7 8 9 9 8 7 7 9 10 12 14 14 16 16 17 19 19 20
19 23 22 15 13 13 12 12 5 6 2 1 1 2 3 2 2 2 2 5 5 9 10 10 10 9 7 5 5 6 6 6 7 8 9 8 8 8 9 11 12 13 14 15 16 17 18 19 20
22 22 22 18 9 13 13 19 16 7 2 3 3 3 4 5 4 5 6 6 6 7 8 9 8 7 6 4 4 5 6 6 7 7 8 8 8 8 9 10 12 13 14 15 16 17 18 19 20
23 24 21 25 15 15 12 21 17 11 4 4 5 5 6 7 8 7 6 6 5 6 6 6 6 5 5 4 5 5 5 6 6 7 8 8 7 8 9 10 11 13 14 16 16 18 17 18 18
24 24 24 22 20 17 17 12 18 14 8 6 6 7 9 9 9 8 8 7 6 6 6 6 5 4 4 4 4 5 5 5 6 6 6 6 7 8 9 11 11 12 14 16 17 17 18 18 17
24 24 25 23 24 22 17 12 17 16 14 12 12 12 12 12 14 11 11 9 8 7 5 5 4 3 3 2 2 4 3 4 4 5 5 5 6 8 8 9 11 12 13 15 16 18 18 18 18
26 30 31 31 26 24 28 18 26 26 25 15 15 15 15 17 15 14 13 12 11 9 7 6 5 4 4 4 4 3 1 4 4 5 5 5 6 7 8 9 10 11 12 14 15 17 18 20 20
27 28 30 31 29 28 34 41 30 32 27 24 21 18 19 18 17 17 16 15 13 12 9 8 7 6 5 4 3 2 3 3 5 4 4 5 6 6 8 9 10 11 13 15 16 16 17 18 23
32 23 26 30 32 39 26 54 33 31 37 32 23 21 18 19 19 19 18 17 16 14 11 9 8 8 6 6 6 7 5 5 5 4 3 3 5 6 7 8 10 11 13 15 17 17 18 18 20
29 23 26 29 34 37 33 39 38 29 34 39 45 28 18 17 18 19 20 18 16 14 12 11 9 9 8 7 7 7 6 5 3 2 2 2 3 5 6 8 9 11 13 15 17 19 20 21 22
21 25 27 29 33 42 33 33 47 31 28 34 33 29 19 14 15 17 18 17 17 14 12 11 11 11 10 9 9 8 7 6 5 5 3 1 2 3 5 7 9 11 13 15 17 19 20 21 23
22 24 36 39 35 41 33 35 37 32 25 26 39 36 28 18 15 14 16 17 16 16 14 13 13 13 11 11 10 9 9 8 8 7 6 3 2 3 4 6 8 11 13 15 17 18 20 22 24
25 25 30 40 39 42 31 35 38 20 26 33 37 40 30 21 15 14 15 16 16 16 15 15 15 14 13 12 11 10 10 9 9 8 6 5 3 2 4 6 8 10 13 14 15 17 20 22 24
26 28 26 35 35 44 37 42 43 33 29 30 35 33 29 20 15 13 13 14 15 16 16 16 15 14 14 13 12 11 11 10 10 8 7 5 4 4 4 6 8 10 12 13 15 18 20 22 23
26 17 28 27 37 41 37 38 29 25 19 18 27 26 22 18 14 12 13 15 15 16 16 16 15 15 15 14 13 13 12 11 10 9 9 7 5 5 5 7 9 10 12 13 15 18 20 21 23
26 27 25 25 29 36 44 39 23 14 17 23 22 22 18 15 11 11 13 15 15 15 15 16 16 16 16 15 14 14 13 12 11 11 10 8 7 7 8 8 10 10 11 13 16 18 19 21 23
30 32 27 30 34 35 42 42 22 25 24 23 26 29 24 17 13 13 13 14 15 16 16 17 17 17 17 16 15 15 14 13 13 13 12 10 10 9 9 9 10 11 12 14 16 17 19 21 23
Wind_Direction
200 197 154 133 100 88 80 94 124 102 121 131 329 75 74 80 132 120 169 152 103 114 130 122 106 111 99 32 34 39 16 12 16 15 12 24 27 25 20 16 12 12 12 9 8 6 3 2 4
198 163 142 108 85 85 74 124 97 105 105 85 40 85 157 120 155 96 140 117 106 113 121 114 100 96 85 76 60 38 9 340 331 338 10 16 23 21 21 16 11 14 13 11 10 10 8 6 4
177 160 95 74 93 90 87 125 99 104 109 131 132 197 149 149 174 138 135 112 105 107 112 113 110 106 97 81 61 40 37 24 16 16 19 17 34 25 18 15 12 12 9 5 4 6 4 3 5
200 162 97 48 74 92 89 109 116 109 129 107 88 83 186 191 175 162 138 116 108 112 111 110 108 104 98 88 79 72 51 28 19 17 14 21 39 31 25 24 17 15 12 10 9 9 10 11 12
274 24 41 45 43 73 96 108 107 108 120 99 126 116 143 228 358 347 67 110 111 117 118 116 112 107 102 98 95 84 67 47 43 41 43 45 52 40 32 33 32 25 22 19 18 17 16 17 18
350 14 36 48 59 77 93 109 107 106 88 102 64 71 110 329 30 26 43 68 100 110 111 114 119 119 117 117 109 102 91 78 63 57 54 50 52 46 42 36 29 28 26 24 22 22 21 20 18
358 15 40 49 60 71 87 83 92 99 78 71 83 64 78 84 72 59 47 43 42 39 63 79 90 92 92 97 101 105 102 86 78 74 69 67 62 63 60 54 46 40 35 33 27 25 25 26 25
345 2 22 46 69 55 79 58 63 80 45 39 44 79 91 111 96 67 41 31 32 29 29 41 77 90 85 86 85 80 100 87 84 74 70 61 55 56 59 59 61 57 50 40 36 33 29 25 24
340 359 358 355 42 26 61 50 49 33 31 358 343 31 49 100 89 66 51 30 24 12 6 16 37 48 74 107 99 79 61 89 73 54 64 68 73 83 85 72 53 37 37 38 32 26 21 21 15
339 352 4 358 10 34 68 39 42 38 16 336 353 13 58 88 93 86 78 56 26 23 356 344 334 335 353 58 91 114 87 64 93 96 90 92 86 73 46 43 28 16 3 359 18 25 25 16 13
336 338 346 346 350 6 20 7 28 31 12 16 75 90 87 92 100 89 66 51 42 20 353 343 340 337 0 3 16 12 347 343 331 74 100 101 72 50 29 28 19 10 355 356 2 4 6 9 12
320 328 337 344 332 343 5 357 10 17 346 345 60 102 87 107 113 111 82 44 24 7 352 338 334 343 352 350 341 320 335 331 327 333 44 47 47 40 36 15 10 14 14 10 10 10 10 13 12
317 321 327 338 337 335 340 356 353 348 343 343 74 90 97 98 86 37 9 356 0 356 340 331 329 342 348 347 339 339 343 332 329 335 352 12 22 38 15 4 5 9 15 12 11 12 12 12 16
321 321 324 330 334 335 336 342 337 342 22 12 55 74 105 128 113 342 338 333 334 330 328 326 332 343 356 340 345 349 352 350 353 347 356 11 22 27 32 23 21 15 16 17 17 16 16 20 21
318 308 311 323 331 332 337 326 308 336 21 353 294 298 303 277 288 204 303 313 324 324 330 335 339 345 350 7 356 2 359 358 350 339 341 357 9 24 22 14 10 13 16 16 14 15 18 17 17
310 313 313 324 340 332 329 315 325 333 272 250 267 275 285 279 252 287 297 302 314 324 328 331 337 343 347 356 360 5 356 360 359 350 350 356 359 3 15 19 15 13 16 15 15 16 14 14 17
305 306 313 310 323 323 317 315 326 335 305 271 262 260 271 281 282 279 282 286 295 312 323 329 336 336 337 342 344 350 354 357 357 357 355 358 8 18 27 24 21 23 25 21 16 11 14 19 23
304 305 308 309 317 313 310 300 312 319 310 282 272 267 269 263 247 267 271 275 286 300 309 314 317 320 320 326 335 333 339 349 4 17 19 22 27 30 32 32 34 35 30 23 20 22 21 21 24
303 304 305 310 312 310 304 285 302 303 298 289 285 274 260 254 282 274 272 271 277 284 287 291 290 283 275 268 276 295 305 321 337 354 20 26 26 27 33 34 36 32 32 28 25 23 18 15 15
297 297 299 303 307 303 303 284 297 297 296 279 267 267 260 274 270 260 261 261 263 265 267 273 268 246 245 253 271 284 286 323 331 337 354 14 26 24 31 38 41 35 31 22 17 14 11 3 354
294 294 299 299 307 304 303 295 294 294 293 291 286 269 276 254 251 251 250 246 253 255 252 254 254 246 247 231 230 259 302 305 307 314 326 353 23 36 46 44 42 32 24 12 9 7 5 359 358
290 300 299 300 301 298 306 280 300 301 293 295 292 288 267 267 262 254 251 249 247 249 249 248 246 249 238 222 214 201 234 235 275 279 316 5 33 48 46 42 36 28 20 12 7 8 1 358 352
294 303 301 301 297 297 296 298 301 304 296 290 279 296 285 272 257 246 241 244 248 247 243 242 240 238 235 229 223 225 235 260 229 254 290 21 35 36 39 35 27 20 17 15 8 4 1 357 354
297 299 303 303 298 289 293 294 287 299 303 298 295 303 305 286 267 254 250 248 247 247 242 233 230 238 234 231 229 225 216 210 215 234 239 270 12 24 26 24 19 16 12 5 3 2 359 358 356
286 292 292 292 290 289 299 291 275 301 303 300 283 294 306 304 280 260 240 236 238 235 236 233 231 234 231 229 226 223 219 213 212 213 225 221 264 329 355 11 2 1 2 0 359 358 357 354 352
276 275 282 289 290 293 297 288 294 304 304 297 294 292 302 302 293 265 241 235 235 236 235 234 233 233 231 228 226 224 221 227 231 228 224 240 263 305 341 348 352 353 354 353 355 356 353 352 352
281 268 282 286 293 290 291 289 290 295 299 301 299 302 304 300 287 265 246 238 236 237 236 235 230 230 225 224 225 227 227 229 227 228 237 248 272 300 318 333 340 342 345 348 351 348 347 349 350
270 281 281 280 285 284 290 292 293 305 304 309 310 312 312 305 290 268 250 245 246 244 243 237 232 226 225 227 229 230 231 233 230 228 234 247 266 282 298 314 324 331 336 342 343 343 344 346 346
273 268 278 280 276 285 288 291 305 297 311 314 317 319 317 309 290 267 258 256 253 247 238 229 227 227 229 231 232 233 232 232 231 235 242 249 261 271 288 302 313 320 327 333 335 337 340 341 342
271 274 259 271 279 281 282 270 292 301 311 314 315 314 314 304 289 275 265 257 249 243 237 229 232 232 233 235 235 233 233 231 233 240 245 251 261 272 281 292 303 311 317 324 327 330 334 335 336